Regional Weather Roundup
Issued by NWS

Home | Current Version | Previous Version | Text Only | Print | Product List | Glossary On
Versions: 1 2 3 4 5 6 7 8 9 10 11 12 13 14 15 16 17 18 19 20 21 22 23 24 25 26 27 28 29 30 31 32 33 34 35 36 37 38 39 40 41 42 43 44 45 46 47 48 49 50
000
ASUS43 KLSX 251010
RWRMO

WEATHER SUMMARY FOR MISSOURI
NATIONAL WEATHER SERVICE SPRINGFIELD MO
500 AM CDT WED APR 25 2018

NOTE: "FAIR" INDICATES FEW OR NO CLOUDS BELOW 12,000 FEET WITH NO
       SIGNIFICANT WEATHER AND/OR OBSTRUCTIONS TO VISIBILITY.
       CURRENT SKY AND/OR WEATHER CONDITIONS ARE NOT AVAILABLE FOR
       CHILLICOTHE AND FARMINGTON.

MOZ001>031-035>038-043-044-053-054-251100-
...NORTHERN AND WESTERN MISSOURI...

CITY           SKY/WX    TMP DP  RH WIND       PRES   REMARKS
KANSAS CTY INT CLOUDY    53  43  68 NW10      30.14R
KANSAS C DTWN  CLOUDY    56  43  61 N10       30.12R
LEE`S SUMMIT   CLOUDY    56  46  69 N15       30.11R
ST JOSEPH      LGT RAIN  51  45  79 N7        30.17R
CHILLICOTHE      N/A     55  41  59 N9        30.11S
KIRKSVILLE     CLOUDY    54  39  57 N14       30.09S

$$
MOZ066>068-077>081-088>096-101>105-251100-
...SOUTHWEST MISSOURI...

CITY           SKY/WX    TMP DP  RH WIND       PRES   REMARKS
SPRINGFIELD    CLOUDY    49  41  74 CALM      30.04S
JOPLIN         CLOUDY    53  47  79 NW10      30.10R
BRANSON        PTCLDY    54  39  58 CALM      30.05F

$$
MOZ032>034-039>042-045>050-055>058-069>072-251100-
...CENTRAL MISSOURI...

CITY           SKY/WX    TMP DP  RH WIND       PRES   REMARKS
COLUMBIA       PTCLDY    54  43  66 N12       30.04F
JEFFERSON CITY CLOUDY    52  41  66 W3        30.04S
ROLLA          CLEAR     50  40  68 NW7       30.04R
SEDALIA        CLOUDY    57  47  69 N9        30.08R
WHITEMAN AFB   MOCLDY    56  46  67 N8        30.04R
WARRENSBURG    CLOUDY    55  45  67 NW6       30.08S
OSAGE BEACH    CLOUDY    52  44  74 CALM      30.06R

$$
MOZ051-052-059>065-251100-
...EAST CENTRAL MISSOURI...

CITY           SKY/WX    TMP DP  RH WIND       PRES   REMARKS
ST LOUIS INTL  PTCLDY    48  39  71 W5        29.99S
SPIRIT OF STL  CLEAR     44  40  85 W6        30.00R
ST CHARLES     CLEAR     54  37  52 W6        29.98S

$$
MOZ072>076-082>087-097>100-106>115-251100-
...SOUTH CENTRAL AND SOUTHEAST MISSOURI...

CITY           SKY/WX    TMP DP  RH WIND       PRES   REMARKS
CAPE GIRARDEAU FOG       44  43  96 CALM      29.99R VSB 1/2
FARMINGTON     CLEAR     43  42  97 CALM      30.01R
POPLAR BLUFF   FAIR      48  48 100 CALM      30.00R FOG
WEST PLAINS    CLEAR     49  45  86 W6        30.04S

$$



USA.gov is the U.S. government's official web portal to all federal, state and local government web resources and services.